« Back
NWS Peachtree City, Ga » Text Product » GA Regional Weather Roundup


Printer-friendly Version
Current Version              Previous Versions:   1  2  3  4  5  6  7  8  9  

Regional Weather Roundup

686
ASUS42 KFFC 032003
RWRGA
WEATHER ROUNDUP FOR GEORGIA
NATIONAL WEATHER SERVICE PEACHTREE CITY GA
400 PM EDT FRI JUL 03 2015

NOTE: "FAIR" INDICATES FEW OR NO CLOUDS BELOW 12,000 FEET WITH NO
SIGNIFICANT WEATHER AND/OR OBSTRUCTIONS TO VISIBILITY.

* = USE WITH CAUTION. THE STATIONS MARKED WITH AN ASTERISK MAY NOT
REPORT WEATHER SUCH AS PRECIPITATION, FOG, OR THUNDER AND ARE NOT
QUALITY CONTROLLED BY NWS.

THE REMARK "TC" DENOTES TEMPERATURE READING IN DEGREES CELSIUS.

GAZ001>058-032100-
NORTH GEORGIA

CITY           SKY/WX    TMP DP  RH WIND       PRES   REMARKS
ATLANTA        CLOUDY    78  69  73 W8        30.03F
ATHENS         CLOUDY    79  69  71 SW7       30.00R
CHAMBLEE       CLOUDY    77  69  76 W14G22    30.04R
PEACHTREE CITY CLOUDY    81  72  74 W6        30.04F
ROME           CLOUDY    77  69  76 SW8       30.00S
WEST ATLANTA   CLOUDY    78  69  73 SW7G17    30.03F
GAINESVILLE    CLOUDY    77  66  68 W22G32    30.02F
CARTERSVILLE   CLOUDY    76  67  73 MISG      30.03S


CITY           SKY/WX    TMP DP  RH WIND       PRES   REMARKS
DALTON*        CLOUDY    77  70  78 SW3       29.99F
LAWRENCEVILLE* PTSUNNY   77  64  65 W16G23    30.00S
MARIETTA       DRIZZLE   76  70  81 W13       30.04S
KENNESAW*      CLOUDY   N/A N/A N/A W15G22    30.05S
BLAIRSVILLE*     N/A     74  56  53 W6        30.03S
$$

GAZ059>098-102>109-032100-
CENTRAL GEORGIA

CITY           SKY/WX    TMP DP  RH WIND       PRES   REMARKS
AUGUSTA-BUSH   CLOUDY    78  70  76 SW8       29.97F
AUGUSTA-DANIEL CLOUDY    79  70  74 VRB7      29.99F
COLUMBUS       PTSUNNY   89  68  49 NW12      30.02S HX  93
MACON          MOSUNNY   92  70  48 W9        30.00F HX  97
ROBINS AFB     MOSUNNY   92  69  46 W13       29.99F HX  97


CITY           SKY/WX    TMP DP  RH WIND       PRES   REMARKS
LAGRANGE*      PTSUNNY   87  76  71 W8        30.04S HX  97
SYLVANIA*      LGT RAIN  81  72  72 W7        30.01F
MILLEDGEVILLE* MOSUNNY   82  72  69 W9        30.01S
$$

GAZ099>101-110>166-032100-
SOUTH GEORGIA

CITY           SKY/WX    TMP DP  RH WIND       PRES   REMARKS
SAVANNAH       PTSUNNY   93  64  38 W20G28    30.00S HX  94
VALDOSTA       SUNNY     93  71  48 VRB3      30.04F HX 100
ALMA           SUNNY     90  67  46 W12       30.03F HX  93
ST SIMONS      SUNNY     93  69  45 W10       30.02F HX  98
FT STEWART     SUNNY     93  67  41 SW14G21   29.99F HX  96
ALBANY         MOSUNNY   91  71  51 SW12      30.04F HX  97
HUNTER AFB     SUNNY     94  70  45 W15G22    29.98S HX 100
MOODY AFB      MOSUNNY   92  70  48 SW9       30.03F HX  98
BRUNSWICK      SUNNY     93  70  46 W13       30.03S HX  99


CITY           SKY/WX    TMP DP  RH WIND       PRES   REMARKS
BAINBRIDGE*    SUNNY     95  73  49 W10       30.04F HX 105
MOULTRIE*      MOSUNNY   90  72  55 SW6       30.05F HX  96
VIDALIA*       MOSUNNY   91  68  46 SW13      30.01F HX  95
WAYCROSS*      MOSUNNY   94  75  52 W7        30.03F HX 105
DOUGLAS*       SUNNY     91  70  49 W10G18    30.05F HX  97
$$



USA.gov is the U.S. government's official web portal to all federal, state and local government web resources and services.